Change the Weather History Date:

Saturday, July 6, 2013

  Actual Average Record
Temperature  
Mean Temperature 67 °F -  
Max Temperature 77 °F 63 °F 77 °F (2013)
Min Temperature 57 °F 46 °F 39 °F (2005)
Cooling Degree Days 2    
Growing Degree Days 17 (Base 50)    
Moisture  
Dew Point 47 °F    
Average Humidity 56    
Maximum Humidity 88    
Minimum Humidity 22    
Precipitation  
Precipitation 0.00 in - - ()
Sea Level Pressure  
Sea Level Pressure 30.36 in    
Wind  
Wind Speed 7 mph ()    
Max Wind Speed 9 mph    
Max Gust Speed 21 mph    
Visibility 6.2 miles    
Events      
Averages and records for this station are not official NWS values.
T = Trace of Precipitation, MM = Missing Value Source: Averaged Metar Reports

Daily Weather History Graph

Daily Weather History Graph

Search for Another Location

Airport or City:

Trip Planner

Search our weather history database for the weather conditions in past years. The results will help you decide how hot, cold, wet, or windy it might be!

Date:

Astronomy

Jul. 06, 2013 Rise Set
Actual Time 5:31 AM CEST 9:14 PM CEST
Civil Twilight 4:52 AM CEST 9:53 PM CEST
Nautical Twilight 3:59 AM CEST 10:45 PM CEST
Astronomical Twilight 2:45 AM CEST 11:58 PM CEST
Moon 4:07 AM CEST (7/6) 7:39 PM CEST (7/6)
Length of Visible Light 17h 00m
Length of Day
15h 43m
Waning Crescent, 3% of the Moon is Illuminated
Jul 6
Waning Crescent
Jul 8
New
Jul 16
First Quarter
Jul 22
Full
Jul 29
Last Quarter

Hourly Weather History & Observations

Time (CEST) Temp. Dew Point Humidity Pressure Visibility Wind Dir Wind Speed Gust Speed Precip Events Conditions
12:55 AM 62.6 °F 53.6 °F 72% 30.39 in - NNE 6.9 mph - N/A   Clear
1:55 AM 60.8 °F 53.6 °F 77% 30.42 in - NE 8.1 mph - N/A   Clear
2:55 AM 60.8 °F 53.6 °F 77% 30.42 in - NNE 8.1 mph - N/A   Clear
3:55 AM 59.0 °F 53.6 °F 82% 30.42 in - North 6.9 mph - N/A   Clear
4:55 AM 57.2 °F 53.6 °F 88% 30.39 in 6.2 mi North 8.1 mph - N/A   Scattered Clouds
5:55 AM 57.2 °F 53.6 °F 88% 30.39 in 6.2 mi North 8.1 mph - N/A   Mostly Cloudy
6:55 AM 57.2 °F 53.6 °F 88% 30.39 in 6.2 mi NNE 6.9 mph - N/A   Mostly Cloudy
7:55 AM 57.2 °F 53.6 °F 88% 30.39 in 6.2 mi North 6.9 mph - N/A   Mostly Cloudy
8:55 AM 59.0 °F 53.6 °F 82% 30.39 in 6.2 mi NNE 8.1 mph 20.7 mph N/A   Mostly Cloudy
9:55 AM 60.8 °F 51.8 °F 72% 30.39 in 6.2 mi NNE 8.1 mph - N/A   Mostly Cloudy
10:55 AM 66.2 °F 48.2 °F 52% 30.36 in 6.2 mi NE 6.9 mph - N/A   Mostly Cloudy
11:55 AM 71.6 °F 41.0 °F 33% 30.36 in 6.2 mi North 9.2 mph - N/A   Scattered Clouds
12:55 PM 75.2 °F 41.0 °F 29% 30.36 in 6.2 mi North 8.1 mph 20.7 mph N/A   Scattered Clouds
1:55 PM 77.0 °F 35.6 °F 22% 30.33 in 6.2 mi North 9.2 mph - N/A   Scattered Clouds
2:55 PM 77.0 °F 39.2 °F 26% 30.33 in 6.2 mi North 9.2 mph - N/A   Mostly Cloudy
3:55 PM 77.0 °F 37.4 °F 24% 30.33 in 6.2 mi North 9.2 mph - N/A   Mostly Cloudy
4:55 PM 77.0 °F 35.6 °F 22% 30.33 in 6.2 mi North 8.1 mph 20.7 mph N/A   Mostly Cloudy
5:55 PM 77.0 °F 35.6 °F 22% 30.30 in 6.2 mi NNW 8.1 mph - N/A   Mostly Cloudy
6:55 PM 75.2 °F 41.0 °F 29% 30.30 in 6.2 mi NNW 6.9 mph - N/A   Scattered Clouds
7:55 PM 71.6 °F 41.0 °F 33% 30.30 in 6.2 mi NNW 8.1 mph - N/A   Scattered Clouds
8:55 PM 69.8 °F 51.8 °F 53% 30.33 in 6.2 mi NNE 5.8 mph - N/A   Scattered Clouds
9:55 PM 66.2 °F 51.8 °F 60% 30.33 in 6.2 mi NNE 6.9 mph - N/A   Scattered Clouds
10:55 PM 64.4 °F 51.8 °F 64% 30.33 in 6.2 mi NNE 8.1 mph - N/A   Scattered Clouds
11:55 PM 62.6 °F 51.8 °F 68% 30.36 in 6.2 mi NNE 6.9 mph - N/A   Scattered Clouds